Simultaneous Nadir Overpasses (SNOs) Predictions

Prediction of SNOs over PacNW region [( 10.00, 139.50) to ( 22.70, 165.60)] between NOAA-19 and NPP Satellites:

Table of predicted SNOs over PacNW region for the next 30.0 days since TLE Epoch: 5/10/2013
Index Date (NOAA-19) Time (NOAA-19) NOAA-19 Lat,Lon Date (NPP) Time (NPP) NPP Lat,Lon Distance(km) Time Diff (sec)
1 05/20/2013 03:46:43 13.25, 145.69 05/20/2013 03:49:25 12.32, 141.76 438.22 162
2 05/20/2013 14:43:27 10.03, 165.19 05/20/2013 14:42:58 9.24, 161.72 390.60 29
3 05/20/2013 16:23:23 17.55, 141.46 05/20/2013 16:21:55 18.22, 138.45 326.99 88
4 06/01/2013 15:52:39 22.63, 150.11 06/01/2013 15:55:02 23.55, 146.13 419.55 143
5 06/02/2013 03:09:13 22.65, 153.52 06/02/2013 03:07:47 22.04, 150.57 311.33 86
